Regional Weather Roundup
Issued by NWS

Home | Current Version | Previous Version | Graphics & Text | Print | Product List | Glossary On
Versions: 1 2 3 4 5 6 7 8 9 10 11 12 13 14 15 16 17 18 19 20 21 22 23 24 25 26 27 28 29 30 31 32 33 34 35 36 37 38 39 40 41 42 43 44 45 46 47 48 49 50
000
ASUS43 KLOT 250458
RWRIL

ILLINOIS REGIONAL WEATHER ROUNDUP
NATIONAL WEATHER SERVICE CHICAGO/ROMEOVILLE IL
1100 PM CST WED DEC 24 2014

NOTE: "FAIR" INDICATES FEW OR NO CLOUDS BELOW 12,000 FEET WITH NO
SIGNIFICANT WEATHER AND/OR OBSTRUCTIONS TO VISIBILITY.

* THESE STATIONS ARE NOT UNDER NWS QUALITY CONTROL. THEY ALSO MAY NOT
  REPORT WEATHER SUCH AS PRECIPITATION OR FOG.

ILZ001-002-007-009-015-016-024-250600-
NORTHWEST ILLINOIS

CITY           SKY/WX    TMP DP  RH WIND       PRES   REMARKS
MOLINE         CLOUDY    35  29  78 W13       29.73R WCI  26
$$

ILZ003-004-008-010-011-017-018-250600-
NORTH CENTRAL ILLINOIS

CITY           SKY/WX    TMP DP  RH WIND       PRES   REMARKS
ROCKFORD       NOT AVBL
$$

ILZ005-006-012>014-019>023-250600-
NORTHEAST ILLINOIS

CITY           SKY/WX    TMP DP  RH WIND       PRES   REMARKS
CHICAGO-OHARE  CLOUDY    36  32  85 W16G24    29.61R WCI  26
CHICAGO-MIDWAY CLOUDY    38  33  82 W14       29.62R WCI  30
AURORA         CLOUDY    36  31  82 W15       29.64R WCI  27
WAUKEGAN       NOT AVBL
DUPAGE AIRPORT CLOUDY    36  32  85 W17       29.62R WCI  26
WHEELING       CLOUDY    37  31  78 W14G22    29.62R WCI  28
NORTHERLY ISL    N/A     37  32  82 W8          N/A  WCI  31
$$

LMZ740>746-250600-
SOUTHERN LAKE MICHIGAN

STATION/POSITION SKY/WX   TEMP    WIND        PRES    VSBY  WAVE
                          AIR SEA DIR/SP/G                  HT/PER
                          (F)     (DEG/KT/KT) (MB)    (MI)  (FT/S)
WAUKEGAN HARBOR            36                   N/A
HARRISON CRIB              36     280/ 17/ 20   N/A
BURNHAM HARBOR             37     290/ 11/ 14   N/A
CALUMET HARBOR             37     240/  8/ 14 1001.4R
MICHIGAN CITY              36     220/ 22/ 24   N/A
$$

ILZ025>027-034>036-040-047-049-050-058-095>099-250600-
WEST-CENTRAL ILLINOIS

CITY           SKY/WX    TMP DP  RH WIND       PRES   REMARKS
$$

ILZ028>032-037-038-041>044-048-051>054-059>061-250600-
CENTRAL ILLINOIS

CITY           SKY/WX    TMP DP  RH WIND       PRES   REMARKS
PEORIA         NOT AVBL
SPRINGFIELD    NOT AVBL
TAYLORVILLE    NOT AVBL
$$

ILZ033-039-045-046-055>057-062-063-250600-
EAST-CENTRAL ILLINOIS

CITY           SKY/WX    TMP DP  RH WIND       PRES   REMARKS
CHAMPAIGN      CLOUDY    36  34  92 W17       29.74R FOG     WCI  26
MATTOON        CLOUDY    36  34  92 W10       29.78R WCI  28
$$

ILZ079-100>102-250600-
SOUTHWEST ILLINOIS

CITY           SKY/WX    TMP DP  RH WIND       PRES   REMARKS
BELLEVILLE     CLOUDY    37  37 100 W7        29.86R WCI  32
CAHOKIA*       LGT RAIN  38  35  89 W9        29.86R WCI  31
$$

ILZ064>066-069>071-074>076-080>082-084>086-088>090-092>094-250600-
SOUTH-CENTRAL ILLINOIS

CITY           SKY/WX    TMP DP  RH WIND       PRES   REMARKS
CARBONDALE     CLOUDY    39  33  79 W8        29.89R WCI  33
$$

ILZ067-068-072-073-078-083-087-091-250600-
SOUTHEAST ILLINOIS

CITY           SKY/WX    TMP DP  RH WIND       PRES   REMARKS
LAWRENCEVILLE  CLOUDY    38  35  89 W14       29.82R WCI  30
$$

ABBREVIATIONS USED IN REMARKS
   TC - TEMPERATURE IN CELSIUS
  WCI - WIND CHILL INDEX
   HX - HEAT INDEX
  VSB - VISIBILITY
$$



USA.gov is the U.S. government's official web portal to all federal, state and local government web resources and services.